THOR ABLESTAR DEB, 154

Orbit data source: Space-Track

THOR ABLESTAR DEB, 154 is space debris in LEO originally from a launch on Thu, 29 Jun 1961 UTC launched from the Air Force Eastern Test Range (AFETR). Debris objects in space refer to the collection of defunct objects orbiting the Earth. Examples of debris include non-operational satellites, rocket bodies, and fragments generated from explosions, collisions, or faulty payload assembly.

Loading next visibility...
THOR ABLESTAR DEB details
Identifier
154, 1961-015AQ
Orbit
LEO
Last TLE update11 hours ago
Origin
Flag of USUSAF SSD (US)
ManufacturerUnknown
MissionSpacecraft
Bus & MotorUnknown
MassUnknown
Launch date (UTC)
1961-06-29 (64 years ago)
Launch vehicleUnknown
Launch site
Air Force Eastern Test Range (AFETR)
Object type
Payload
Rocket body
Debris
Shape & HBRUnknown
Radar Cross SectionMedium (>0.1 m² and <1 m²)

Expand to show TLE details & history

TLE from 11 hours ago
0 THOR ABLESTAR DEB
1   154U 61015AQ  25036.14522900  .00000695  00000-0  45889-3 0  9999
2   154  66.6596 325.4750 0084250 351.5125   8.4529 14.05879106247177
Epoch: 2025-02-05T03:29Z
Definitive object data (Epoch: 2025-02-05T03:29:07.785Z)
Latitude-0.00008°
Longitude137.65216°
Altitude815.161 km
Speed7.477 km/s
True Right ascension21h 41m 53s
True Declination0° 00' 00"
Sunlit
Object was in daylight at TLE epoch
Visualization TLE readout
Latitude-45.18804°
Longitude-17.9379°
Altitude921.049 km
Speed7.375 km/s
Apparent Right ascension08h 12m 48s
Apparent Declination-54° 03' 41"
Sunlit
Object is in daylight
Visualization observer readout
Local Sidereal Time16:53:06
Azimuth229.874° WSW
Elevation-54.031°
Doppler factor1
Orbital elements
Apogee altitude932.987 km
Perigee altitude810.824 km
Semi-major axis7,250.043 km
Eccentricity0.008425
Inclination66.6596°
RAAN325.475°
Arg. of periapsis351.5125°
True anomaly8.59631°
Mean anomaly8.4529°
Eccentric anomaly8.52445°
Mean motion3.51587 °/min
BSTAR0.00045889
Orbital period102.39 mins
Loading maneuver chart data...

THOR ABLESTAR DEB Visibility forecast

Observer location: undefined°, undefined

Span
Click to sort rows by Start time (UTC) header in descending order
Start Az.
Max El. time (UTC)
Max El. Az.
Max El.
End time (UTC)
End Az.
10 mins2025-02-05 20:40:33.707Z201.624° SSW2025-02-05 20:45:33.707Z137.135° SSE44.223°2025-02-05 20:50:33.707Z32.602° NE
6 mins2025-02-05 22:29:33.707Z289.653° WNW2025-02-05 22:31:33.707Z315.383° NNW17.932°2025-02-05 22:35:33.707Z0.518° NNE
4 mins2025-02-06 03:55:33.707Z19.428° NNE2025-02-06 03:57:33.707Z41.17° NE14.036°2025-02-06 03:59:33.707Z62.226° ENE
10 mins2025-02-06 05:39:33.707Z338.837° N2025-02-06 05:43:33.707Z46.014° ENE43.001°2025-02-06 05:49:33.707Z142.24° SSE
6 mins2025-02-06 07:25:33.707Z287.921° WNW2025-02-06 07:28:33.707Z253.976° W17.69°2025-02-06 07:31:33.707Z220.964° SW
|